Location: Asheville, NC
(35.6000°N, 82.5500°W)
Time: 23:59:20
(UTC-04:00)

Envisat - Pass Details

Date: 13 October 2017
Orbit: 764 x 766 km, 98.2° (Epoch: 22 October)

Event Time Altitude Azimuth Distance (km) Brightness Sun altitude
Exits shadow 20:56:59 29° 19° (NNE) 1,393 4.2 -25.1°
Drops below altitude 10° 20:59:38 10° 1° (N) 2,304 5.5 -25.7°
Sets 21:02:01 0° 355° (N) 3,234 6.4 -26.2°
